Total_Precipitation_Accumulation
0.13 0.15 0.15 0.16 0.14 0.14 0.14 0.11 0.07 0.08 0.07 0.05 0.04 0.04 0.04 0.05 0.06 0.07 0.11 0.17 0.19 0.24 0.29 0.27 0.23 0.18 0.16 0.16 0.14 0.12 0.11 0.10 0.11 0.10 0.08 0.07 0.06 0.06 0.06 0.07 0.08 0.09 0.10
0.17 0.19 0.21 0.22 0.20 0.17 0.18 0.16 0.13 0.12 0.11 0.09 0.08 0.08 0.08 0.09 0.11 0.11 0.16 0.18 0.21 0.23 0.31 0.36 0.33 0.27 0.26 0.28 0.25 0.21 0.20 0.20 0.20 0.19 0.16 0.14 0.12 0.10 0.10 0.09 0.09 0.09 0.08
0.25 0.27 0.29 0.31 0.29 0.28 0.27 0.25 0.24 0.19 0.16 0.16 0.17 0.15 0.14 0.15 0.17 0.21 0.25 0.30 0.32 0.30 0.31 0.34 0.35 0.34 0.33 0.34 0.32 0.29 0.28 0.28 0.28 0.26 0.26 0.25 0.22 0.18 0.16 0.14 0.14 0.13 0.11
0.31 0.38 0.45 0.50 0.51 0.49 0.48 0.49 0.43 0.36 0.33 0.31 0.30 0.25 0.21 0.24 0.28 0.32 0.34 0.36 0.40 0.35 0.30 0.29 0.31 0.34 0.35 0.34 0.33 0.34 0.34 0.34 0.33 0.32 0.33 0.32 0.31 0.29 0.25 0.22 0.20 0.19 0.17
0.56 0.72 0.84 0.86 0.80 0.75 0.72 0.67 0.63 0.58 0.54 0.50 0.40 0.34 0.29 0.31 0.38 0.39 0.38 0.39 0.42 0.39 0.35 0.31 0.32 0.37 0.38 0.36 0.34 0.33 0.36 0.38 0.39 0.39 0.37 0.35 0.36 0.35 0.32 0.27 0.25 0.23 0.21
1.18 1.25 1.23 1.16 1.06 1.04 1.03 0.95 0.85 0.75 0.65 0.58 0.43 0.34 0.29 0.28 0.33 0.39 0.39 0.39 0.42 0.43 0.43 0.41 0.38 0.36 0.37 0.36 0.36 0.33 0.31 0.35 0.40 0.39 0.36 0.37 0.40 0.39 0.36 0.33 0.31 0.29 0.26
1.94 1.89 1.85 1.73 1.53 1.39 1.28 1.10 0.95 0.82 0.69 0.59 0.50 0.41 0.31 0.23 0.25 0.30 0.30 0.32 0.33 0.31 0.32 0.34 0.36 0.34 0.32 0.36 0.37 0.33 0.29 0.30 0.38 0.41 0.40 0.42 0.43 0.40 0.37 0.35 0.33 0.31 0.29
2.68 2.54 2.39 2.15 1.90 1.71 1.46 1.19 0.98 0.83 0.71 0.61 0.57 0.55 0.44 0.32 0.23 0.19 0.19 0.20 0.20 0.20 0.20 0.21 0.21 0.21 0.22 0.25 0.25 0.26 0.26 0.24 0.25 0.29 0.36 0.42 0.44 0.43 0.39 0.37 0.35 0.34 0.34
3.02 2.72 2.46 2.24 1.98 1.68 1.42 1.18 0.96 0.82 0.67 0.55 0.50 0.50 0.46 0.39 0.29 0.20 0.16 0.14 0.14 0.14 0.14 0.15 0.17 0.17 0.14 0.13 0.13 0.16 0.20 0.19 0.20 0.22 0.28 0.36 0.37 0.36 0.36 0.39 0.42 0.41 0.38
2.96 2.61 2.31 1.99 1.68 1.42 1.21 0.99 0.77 0.61 0.51 0.41 0.34 0.30 0.29 0.28 0.30 0.23 0.15 0.13 0.12 0.12 0.12 0.13 0.14 0.16 0.15 0.14 0.14 0.16 0.17 0.18 0.19 0.18 0.20 0.27 0.31 0.31 0.31 0.35 0.41 0.45 0.48
2.35 2.05 1.77 1.51 1.26 1.01 0.80 0.61 0.49 0.42 0.37 0.33 0.30 0.28 0.28 0.27 0.27 0.26 0.20 0.13 0.11 0.10 0.09 0.09 0.11 0.13 0.12 0.11 0.11 0.14 0.17 0.17 0.19 0.21 0.21 0.21 0.23 0.24 0.27 0.31 0.35 0.41 0.48
1.64 1.45 1.24 1.03 0.83 0.65 0.53 0.44 0.36 0.32 0.30 0.30 0.28 0.26 0.25 0.24 0.23 0.23 0.22 0.16 0.12 0.09 0.08 0.08 0.09 0.10 0.10 0.11 0.14 0.21 0.19 0.19 0.19 0.18 0.19 0.18 0.18 0.20 0.23 0.26 0.30 0.36 0.43
1.17 0.97 0.79 0.66 0.53 0.42 0.38 0.35 0.33 0.30 0.26 0.24 0.22 0.21 0.19 0.18 0.17 0.16 0.17 0.16 0.13 0.10 0.08 0.07 0.07 0.06 0.06 0.07 0.10 0.18 0.19 0.19 0.18 0.17 0.15 0.13 0.12 0.13 0.15 0.19 0.24 0.31 0.39
0.67 0.53 0.45 0.39 0.35 0.30 0.27 0.25 0.24 0.21 0.19 0.16 0.14 0.14 0.12 0.11 0.12 0.13 0.16 0.18 0.18 0.14 0.11 0.10 0.08 0.06 0.05 0.06 0.09 0.13 0.15 0.14 0.13 0.12 0.10 0.09 0.08 0.08 0.09 0.12 0.15 0.20 0.25
0.41 0.36 0.31 0.29 0.26 0.23 0.20 0.17 0.15 0.14 0.13 0.13 0.13 0.13 0.12 0.11 0.11 0.10 0.11 0.14 0.22 0.22 0.15 0.10 0.08 0.07 0.06 0.07 0.10 0.13 0.16 0.16 0.15 0.13 0.10 0.08 0.07 0.07 0.07 0.08 0.09 0.11 0.13
0.29 0.24 0.20 0.17 0.15 0.13 0.12 0.11 0.11 0.11 0.11 0.12 0.12 0.12 0.13 0.12 0.12 0.11 0.13 0.15 0.20 0.27 0.23 0.13 0.09 0.07 0.07 0.07 0.09 0.14 0.17 0.14 0.13 0.12 0.10 0.08 0.07 0.07 0.08 0.09 0.10 0.11 0.12
0.16 0.15 0.13 0.12 0.11 0.11 0.11 0.12 0.12 0.13 0.13 0.14 0.14 0.14 0.14 0.14 0.14 0.13 0.13 0.14 0.15 0.20 0.25 0.15 0.09 0.08 0.11 0.14 0.16 0.19 0.18 0.16 0.14 0.15 0.14 0.14 0.11 0.09 0.10 0.11 0.12 0.13 0.13
0.12 0.11 0.11 0.11 0.11 0.11 0.12 0.12 0.13 0.13 0.14 0.14 0.13 0.13 0.12 0.13 0.14 0.13 0.13 0.12 0.14 0.19 0.28 0.26 0.17 0.13 0.13 0.15 0.18 0.20 0.14 0.12 0.14 0.16 0.16 0.14 0.12 0.12 0.11 0.10 0.10 0.10 0.09
0.10 0.09 0.08 0.08 0.08 0.08 0.08 0.09 0.09 0.10 0.10 0.10 0.09 0.09 0.09 0.09 0.11 0.11 0.12 0.13 0.16 0.18 0.25 0.29 0.20 0.15 0.12 0.11 0.18 0.21 0.20 0.24 0.15 0.11 0.10 0.09 0.10 0.10 0.10 0.09 0.08 0.07 0.05
0.06 0.05 0.05 0.04 0.05 0.05 0.05 0.05 0.04 0.04 0.04 0.04 0.04 0.05 0.05 0.07 0.11 0.14 0.13 0.15 0.19 0.22 0.23 0.26 0.22 0.16 0.14 0.15 0.26 0.34 0.31 0.26 0.19 0.11 0.11 0.09 0.09 0.08 0.10 0.14 0.11 0.09 0.07
0.03 0.03 0.03 0.03 0.02 0.02 0.01 0.01 0.01 0.01 0.02 0.02 0.03 0.04 0.05 0.07 0.13 0.15 0.16 0.18 0.23 0.27 0.28 0.31 0.28 0.23 0.19 0.25 0.34 0.38 0.34 0.24 0.17 0.15 0.17 0.14 0.18 0.28 0.48 0.59 0.40 0.20 0.13
0.03 0.03 0.02 0.02 0.02 0.01 0.00 0.00 0.00 0.01 0.02 0.03 0.05 0.06 0.05 0.05 0.07 0.09 0.11 0.15 0.22 0.29 0.34 0.38 0.36 0.31 0.26 0.34 0.42 0.44 0.44 0.39 0.28 0.18 0.22 0.17 0.28 0.60 1.00 1.25 0.88 0.39 0.26
0.03 0.03 0.02 0.03 0.03 0.02 0.00 0.00 0.00 0.01 0.04 0.07 0.09 0.09 0.07 0.07 0.12 0.14 0.11 0.10 0.13 0.20 0.34 0.47 0.48 0.39 0.37 0.43 0.55 0.55 0.49 0.47 0.38 0.29 0.35 0.31 0.42 0.72 0.89 1.04 1.00 0.64 0.49
0.04 0.04 0.04 0.04 0.07 0.03 0.00 0.00 0.00 0.02 0.06 0.08 0.09 0.10 0.14 0.18 0.15 0.10 0.08 0.10 0.18 0.31 0.39 0.43 0.49 0.44 0.44 0.49 0.58 0.59 0.53 0.46 0.36 0.34 0.44 0.46 0.49 0.66 0.71 0.97 1.23 1.10 0.92
0.05 0.05 0.04 0.06 0.09 0.08 0.01 0.00 0.00 0.02 0.05 0.06 0.06 0.08 0.11 0.16 0.13 0.11 0.11 0.16 0.23 0.34 0.34 0.42 0.49 0.55 0.59 0.59 0.54 0.51 0.57 0.58 0.50 0.37 0.42 0.49 0.57 0.67 0.79 1.08 1.24 1.29 1.21
0.06 0.06 0.05 0.07 0.10 0.11 0.02 0.00 0.01 0.03 0.05 0.05 0.08 0.14 0.13 0.10 0.11 0.12 0.12 0.21 0.32 0.37 0.49 0.66 0.77 0.83 0.78 0.70 0.59 0.56 0.64 0.68 0.67 0.58 0.46 0.51 0.58 0.74 0.97 1.19 1.19 1.13 1.14